Location: Lachepaillet
(43.4918°N, 1.4874°W)
Time: 02:22:29
(UTC+00:00)

Cosmos 1726 Rocket - Pass Details

Date: 15 May 2026
Orbit: 555 x 660 km, 82.5° (Epoch: 8 June)

Event Time Altitude Azimuth Distance (km) Brightness Sun altitude
Exits shadow 21:25:49 30° 95° (E) 1,010 4.3 -17.9°
Maximum altitude 21:25:58 30° 91° (E) 1,008 4.3 -17.9°
Drops below altitude 10° 21:29:32 10° 29° (NNE) 1,846 6.3 -18.3°
Sets 21:31:53 0° 19° (NNE) 2,750 7.4 -18.6°
